{"data":{"norad_id":51146,"intl_designator":"2022-005AU","name":"STARLINK-3354","alt_names":[],"object_type":"PAYLOAD","status":"ACTIVE","operator":null,"country":"US","launch_date":"2022-01-19","launch_site_code":"AFETR","launch_vehicle":null,"mission":null,"orbit_class":"UNKNOWN","rcs_meters":null,"size_class":null,"mass_kg":null,"dimensions":null,"purposes":["comms"],"wikipedia_slug":null,"has_3d_model":false,"image_url":null,"decayed_at":null,"tle_current":{"epoch":"2026-09-20T03:38:48.355584Z","epoch_age_seconds":78266,"freshness":"FRESH","line1":"1 51146U 22005AU  26263.15194856  .00000297  00000+0  19931-4 0  9998","line2":"2 51146  53.1587 131.0137 0001176  90.4690 269.6448 15.34385042258297","mean_motion":15.34385042,"eccentricity":0.0001176,"inclination_deg":53.1587,"raan_deg":131.0137,"arg_perigee_deg":90.469,"mean_anomaly_deg":269.6448,"bstar":1.9931e-5,"rev_number":25829,"period_min":93.848672959105,"perigee_km":461.94321085594,"apogee_km":463.55218693712,"semimajor_km":6840.8846988965,"source":"CELESTRAK","updated_at":"2026-09-20T09:00:39.592339Z"}}}